DW7248 Weather Reports


time (UTC)temp
F
wind
direction
speed
knots
gust
knots
rain 1hr
in
rain 24hr
in
rain mn
in
humidity
%
barometer
mb
20240614131454 73 246 0.0 0.0 0.00 0.51 0.00 73 1011.1
20240614124453 73 247 0.0 0.9 0.00 0.51 0.00 78 1010.7
20240614121451 71 89 0.0 0.9 0.00 0.51 0.00 88 1010.6
20240614114452 68 242 0.0 0.0 0.00 0.51 0.00 94 1010.6
20240614111453 66 245 0.0 0.0 0.00 0.51 0.00 97 1010.6
20240614101453 65 245 0.0 0.0 0.00 0.51 0.00 97 1010.4
20240614094453 65 245 0.0 0.0 0.00 0.51 0.00 97 1010.2
20240614084451 66 256 0.0 2.6 0.00 0.51 0.00 96 1009.9
20240614074451 67 250 0.0 2.6 0.00 0.51 0.00 96 1009.3
20240614071450 67 275 0.0 2.6 0.00 0.51 0.00 96 1009.0
20240614061449 67 260 0.0 0.0 0.00 0.51 0.00 96 1008.4
20240614054447 67 218 0.0 0.0 0.00 0.51 0.00 95 1008.3
20240614044445 70 255 0.0 7.0 0.00 0.51 0.51 91 1009.2
20240614034445 69 131 0.0 0.0 0.00 0.51 0.51 96 1008.6
20240614031445 70 131 0.0 0.0 0.00 0.51 0.51 95 1008.0
20240614021443 71 131 0.0 0.0 0.00 0.51 0.51 94 1007.9
20240614014440 71 141 0.0 0.0 0.00 0.51 0.51 92 1006.8
20240614004439 74 101 0.9 6.1 0.00 0.51 0.51 86 1007.3
20240614001437 76 134 0.0 6.1 0.00 0.51 0.51 88 1007.4
20240613231437 77 126 0.0 4.3 0.00 0.51 0.51 96 1007.2
20240613224437 76 141 0.0 5.2 0.00 0.51 0.51 97 1007.7
20240613221436 76 97 0.0 0.0 0.00 0.51 0.51 97 1007.4
20240613214436 74 162 0.0 0.0 0.51 0.51 0.51 97 1008.0
20240613211437 73 68 0.0 10.4 0.51 0.51 0.51 93 1007.7
20240613204438 87 257 0.0 2.6 0.00 0.00 0.00 56 1006.6
20240613194434 89 276 0.9 7.8 0.00 0.00 0.00 52 1007.3
20240613191435 91 252 1.7 9.6 0.00 0.00 0.00 49 1007.4
20240613184434 90 242 1.7 11.3 0.00 0.00 0.00 51 1007.5
20240613181432 90 306 2.6 12.2 0.00 0.00 0.00 50 1007.7
20240613174432 89 264 1.7 12.2 0.00 0.00 0.00 52 1007.7
20240613154430 84 275 2.6 14.8 0.00 0.00 0.00 60 1007.6
20240613151430 82 295 1.7 14.8 0.00 0.00 0.00 65 1007.5
20240613144431 77 248 2.6 11.3 0.00 0.00 0.00 71 1007.5
20240613141428 77 189 0.0 2.6 0.00 0.00 0.00 74 1008.0
20240613134429 78 240 0.0 7.0 0.00 0.00 0.00 69 1009.6